Location: Sungai Apap
(2.6167°N, 113.3833°E)
Time: 15:06:30
(UTC+00:00)

Geosat - Pass Details

Date: 25 May 2024
Orbit: 760 x 763 km, 108.1° (Epoch: 12 June)

Event Time Altitude Azimuth Distance (km) Brightness Sun altitude
Rises 20:54:45 0° 154° (SSE) 3,215 7.3 -19.6°
Reaches altitude 10° 20:57:02 10° 151° (SSE) 2,289 6.5 -19.1°
Maximum altitude 21:01:59 70° 68° (ENE) 809 4.3 -17.9°
Drops below altitude 10° 21:06:56 10° 345° (NNW) 2,284 6.6 -16.8°
Sets 21:09:13 0° 343° (NNW) 3,208 7.3 -16.3°
